星链-36735(STARLINK-36735)

导读

STARLINK-36735(NORAD编号68976)是SpaceX星链(Starlink)互联网星座中的一颗低轨通信卫星,归属星链卫星组网计划。星链项目旨在搭建覆盖全球的天基互联网系统,该卫星作为后续批次发射组网卫星,用于补充增强星座通信容量,为全球用户提供低延迟宽带互联网接入服务。 该卫星运行于近地轨道,由SpaceX通过猎鹰9号火箭执行发射任务,依托可重复使用火箭技术降低发射成本,延续星链星座标准化批量部署策略,助力SpaceX完成万颗级卫星组网目标,推动全球卫星互联网服务覆盖能力提升。

基本信息
目录编号:
68976
目录名称:
STARLINK-36735
国际标识:
2026-099AB
轨道中心:
EARTH
卫星名称:
星链-36735
卫星全名:
星链-36735(STARLINK-36735)
卫星状态:
在轨 (已飞行42 天)
发射日期:
2026-05-01 UTC
国别 :
美国 (US)
星等 :
--
轨道信息
数据来源 国际轨道数据 AOE轨道数据
星历时间 2026-06-12T14:57:06+0800
15小时前
查看轨道信息
2026-06-10T06:00:00+0800
3天前
查看轨道信息
半长轴 6840.791km 6840.927km
偏心率 0.0001552 0.0001599
轨道倾角 53.158° 53.160°
近地点辐角 71.891° 72.704°
升交点赤经 183.953° 195.047°
平近点角 288.226° 132.116°
近地点 461.592km 461.696km
远地点 463.716km 463.884km
周期 93.847分钟 93.850分钟
每日圈数 15.344169 15.343711
详细信息
固有亮度:
5
最大亮度:
2.5
卫星平台:
Starlink V1.0
覆盖范围:
全球
运营商:
太空探索技术公司
运营商所在国:
美国
制造商(研发单位):
太空探索技术公司
制造商所在国:
美国
使用方式:
暂无
卫星简介
Starlink 计划是 SpaceX 推出的全球卫星互联网项目,通过发射低轨道卫星,为全球尤其是偏远地区提供高速、低延迟的互联网服务。自 2019 年起,Starlink 已部署数千颗卫星,旨在缩小全球数字鸿沟,推动互联网普及。该项目还为军事、航空等行业提供通信支持,带来广泛经济效益。
2D轨道图
3D轨道图
轨道高度分析图
轨道倾角分析图
轨道综合分析图
查看轨道综合分析图